Location: Newark
(44.3100°N, 0.7769°W)
Time: 13:42:20
(UTC+00:00)

Envisat - Pass Details

Date: 27 November 2019
Orbit: 764 x 766 km, 98.1° (Epoch: 06 December)

Event Time Altitude Azimuth Distance (km) Brightness Sun altitude
Rises 17:18:38 0° 145° (SE) 3,220 6.1 -9.2°
Reaches altitude 10° 17:21:02 10° 138° (SE) 2,298 5.3 -9.6°
Maximum altitude 17:25:46 42° 69° (ENE) 1,090 3.3 -10.4°
Drops below altitude 10° 17:30:32 10° 0° (N) 2,312 5.3 -11.2°
Sets 17:32:57 0° 354° (N) 3,242 6.1 -11.6°
